| time (UTC) | temp C | wind direction | speed KPH | gust KPH | rain 1hr cm | rain 24hr cm | rain mn cm | humidity % | barometer mb |
| 20260505041548 | 8 | 230 | 1.6 | 11.3 | 0.00 | 0.15 | 0.00 | 72 | 1009.9 |
| 20260505040044 | 8 | 250 | 4.8 | 11.3 | 0.00 | 0.15 | 0.00 | 72 | 1009.8 |
| 20260505034552 | 8 | 248 | 6.4 | 20.9 | 0.00 | 0.15 | 0.00 | 71 | 1009.7 |
| 20260505033046 | 9 | 264 | 14.5 | 25.7 | 0.00 | 0.15 | 0.00 | 70 | 1009.4 |
| 20260505031540 | 9 | 210 | 6.4 | 17.7 | 0.00 | 0.15 | 0.00 | 70 | 1008.9 |
| 20260505030035 | 8 | 270 | 6.4 | 22.5 | 0.00 | 0.15 | 0.00 | 70 | 1009.0 |
| 20260505024533 | 8 | 227 | 8.0 | 22.5 | 0.00 | 0.15 | 0.15 | 71 | 1008.7 |
| 20260505023032 | 8 | 275 | 4.8 | 17.7 | 0.00 | 0.15 | 0.15 | 73 | 1008.7 |
| 20260505021532 | 7 | 260 | 8.0 | 14.5 | 0.03 | 0.15 | 0.15 | 74 | 1008.5 |
| 20260505020029 | 7 | 249 | 3.2 | 8.0 | 0.03 | 0.15 | 0.15 | 74 | 1008.1 |
| 20260505014529 | 7 | 263 | 6.4 | 16.1 | 0.03 | 0.15 | 0.15 | 73 | 1008.0 |
| 20260505013027 | 8 | 267 | 6.4 | 16.1 | 0.03 | 0.15 | 0.15 | 72 | 1007.9 |
| 20260505011544 | 8 | 235 | 4.8 | 19.3 | 0.00 | 0.15 | 0.15 | 72 | 1007.7 |
| 20260505010024 | 8 | 246 | 4.8 | 16.1 | 0.00 | 0.15 | 0.15 | 72 | 1007.7 |
| 20260505004524 | 8 | 225 | 6.4 | 14.5 | 0.00 | 0.15 | 0.15 | 71 | 1007.4 |
| 20260505003023 | 8 | 239 | 3.2 | 11.3 | 0.00 | 0.15 | 0.15 | 70 | 1007.2 |
| 20260505001522 | 8 | 197 | 3.2 | 11.3 | 0.00 | 0.15 | 0.15 | 69 | 1007.2 |
| 20260505000021 | 8 | 237 | 3.2 | 12.9 | 0.00 | 0.15 | 0.15 | 69 | 1006.9 |
| 20260504234518 | 8 | 223 | 8.0 | 14.5 | 0.00 | 0.15 | 0.15 | 69 | 1006.8 |
| 20260504233017 | 8 | 224 | 6.4 | 22.5 | 0.00 | 0.15 | 0.15 | 70 | 1006.6 |
| 20260504231516 | 8 | 213 | 4.8 | 17.7 | 0.00 | 0.15 | 0.15 | 70 | 1006.7 |
| 20260504230015 | 8 | 185 | 3.2 | 12.9 | 0.00 | 0.15 | 0.15 | 70 | 1006.4 |
| 20260504224514 | 9 | 173 | 8.0 | 16.1 | 0.00 | 0.18 | 0.15 | 69 | 1006.1 |
| 20260504223013 | 9 | 181 | 4.8 | 16.1 | 0.00 | 0.18 | 0.15 | 69 | 1005.9 |
| 20260504221511 | 9 | 216 | 4.8 | 19.3 | 0.00 | 0.18 | 0.15 | 69 | 1005.9 |
| 20260504220010 | 10 | 249 | 12.9 | 25.7 | 0.00 | 0.18 | 0.15 | 68 | 1006.0 |
| 20260504214509 | 10 | 201 | 14.5 | 32.2 | 0.00 | 0.20 | 0.15 | 66 | 1005.7 |
| 20260504213007 | 10 | 240 | 6.4 | 30.6 | 0.00 | 0.20 | 0.15 | 64 | 1005.5 |
| 20260504211505 | 11 | 246 | 11.3 | 27.4 | 0.03 | 0.20 | 0.15 | 60 | 1005.2 |
| 20260504210007 | 12 | 205 | 9.7 | 29.0 | 0.03 | 0.20 | 0.15 | 57 | 1005.3 |
| 20260504204502 | 12 | 202 | 8.0 | 20.9 | 0.03 | 0.20 | 0.15 | 56 | 1005.2 |
| 20260504203105 | 13 | 242 | 8.0 | 24.1 | 0.03 | 0.20 | 0.15 | 51 | 1005.1 |
| 20260504201557 | 15 | 195 | 8.0 | 19.3 | 0.00 | 0.18 | 0.13 | 46 | 1004.7 |
| 20260504194603 | 16 | 200 | 20.9 | 35.4 | 0.00 | 0.20 | 0.13 | 32 | 1004.0 |
| 20260504193056 | 16 | 232 | 17.7 | 35.4 | 0.00 | 0.20 | 0.13 | 32 | 1004.0 |
| 20260504191608 | 16 | 243 | 19.3 | 35.4 | 0.00 | 0.20 | 0.13 | 32 | 1004.0 |
| 20260504190053 | 16 | 256 | 20.9 | 37.0 | 0.00 | 0.20 | 0.13 | 34 | 1003.8 |
| 20260504184552 | 16 | 268 | 27.4 | 38.6 | 0.00 | 0.23 | 0.13 | 32 | 1003.8 |
| 20260504183050 | 15 | 258 | 25.7 | 45.1 | 0.00 | 0.23 | 0.13 | 32 | 1003.9 |
| 20260504181554 | 15 | 256 | 25.7 | 40.2 | 0.00 | 0.23 | 0.13 | 32 | 1004.0 |
| 20260504180047 | 15 | 263 | 22.5 | 41.8 | 0.00 | 0.23 | 0.13 | 33 | 1003.9 |
| 20260504174545 | 15 | 248 | 22.5 | 49.9 | 0.00 | 0.23 | 0.13 | 36 | 1004.0 |
| 20260504173043 | 15 | 267 | 24.1 | 54.7 | 0.03 | 0.23 | 0.13 | 33 | 1004.1 |
| 20260504171548 | 14 | 254 | 24.1 | 46.7 | 0.03 | 0.23 | 0.13 | 34 | 1004.0 |
| 20260504081506 | 3 | 266 | 25.7 | 46.7 | 0.00 | 0.20 | 0.05 | 82 | 996.2 |
| 20260504044532 | 2 | 311 | 24.1 | 48.3 | 0.00 | 0.18 | 0.03 | 86 | 991.2 |
| 20260504043042 | 2 | 277 | 24.1 | 56.3 | 0.00 | 0.18 | 0.03 | 87 | 990.8 |